COSMOS 2465 (737)

Last updated on Oct. 16, 2017, 12:19 a.m. UTC

1 37138U 10041B   17288.24818219  .00000018  00000-0  00000-0 0  9998
2 37138  64.6156 299.8315 0036411 172.8405  32.2943  2.13097601 55407
UTC
Height (km)
Latitude
Longitude
Inclination
Orbital Period
UTC large
Height (km)
Speed (km/s)
/
Latitude / Longitude
Inclination (degrees)
Orbital Period (minutes)
Azimuth
Elevation
Range (km)
Doppler Factor
iOS Compass Heading
iOS Angle

Next 30 passes for location: Hong Kong

Rise time Rise Azimuth (degrees) Set time Set Azimuth (degrees) Duration Max altitude (degrees)

No matching passes for this satellites